AUA59T LOWW-LICC

Flight info

Callsign AUA59T
Flight time N/A
Altitude 35000
Route STEIN3C/29 STEIN DCT NOHAT DCT NEKIN DCT NIVES/N0445F380 DCT RASTU DCT PALEZ/N0447F370 DCT MOLUX DCT NERAR DCT VAKOR DCT PELEN DCT UXUTA
Aircraft A320/M-SDE3FGHIRWY/LB1

Departure

Time 2026-04-25 17:38
Airport Vienna International Airport (LOWW)

Arrival

Time N/A
Airport Catania-Fontanarossa Airport (LICC)
Time Latitude Longitude Altitude Speed Heading
2026-04-25 17:18 48.11879 16.56822 613 ft 0 kts 206°
2026-04-25 17:26 48.11894 16.56832 624 ft 2 kts 206°
2026-04-25 17:27 48.11909 16.56843 614 ft 2 kts 206°
2026-04-25 17:27 48.11924 16.56855 623 ft 3 kts 204°
2026-04-25 17:27 48.11942 16.56861 625 ft 3 kts 167°
2026-04-25 17:27 48.11950 16.56859 624 ft 1 kts 142°
2026-04-25 17:28 48.11962 16.56834 625 ft 3 kts 97°
2026-04-25 17:28 48.11963 16.56811 625 ft 3 kts 97°
2026-04-25 17:28 48.11964 16.56802 625 ft 0 kts 110°
2026-04-25 17:30 48.11964 16.56803 625 ft 1 kts 109°
2026-04-25 17:30 48.11937 16.56890 617 ft 11 kts 116°
2026-04-25 17:31 48.11925 16.56928 617 ft 1 kts 116°
2026-04-25 17:31 48.11899 16.57004 614 ft 19 kts 116°
2026-04-25 17:31 48.11848 16.57192 608 ft 18 kts 96°
2026-04-25 17:31 48.11802 16.57343 614 ft 15 kts 146°
2026-04-25 17:32 48.11706 16.57385 621 ft 14 kts 166°
2026-04-25 17:32 48.11621 16.57422 615 ft 12 kts 161°
2026-04-25 17:32 48.11539 16.57456 611 ft 15 kts 170°
2026-04-25 17:32 48.11423 16.57409 612 ft 16 kts 205°
2026-04-25 17:33 48.11356 16.57361 608 ft 3 kts 205°
2026-04-25 17:33 48.11355 16.57361 608 ft 0 kts 205°
2026-04-25 17:33 48.11353 16.57360 608 ft 0 kts 205°
2026-04-25 17:33 48.11349 16.57357 608 ft 0 kts 205°
2026-04-25 17:34 48.11347 16.57355 608 ft 0 kts 205°
2026-04-25 17:34 48.11328 16.57342 614 ft 10 kts 205°
2026-04-25 17:34 48.11252 16.57288 608 ft 13 kts 202°
2026-04-25 17:34 48.11187 16.57339 612 ft 12 kts 118°
2026-04-25 17:35 48.11149 16.57461 612 ft 13 kts 115°
2026-04-25 17:35 48.11089 16.57532 614 ft 11 kts 183°
2026-04-25 17:35 48.11056 16.57510 612 ft 2 kts 206°
2026-04-25 17:35 48.11055 16.57510 614 ft 0 kts 206°
2026-04-25 17:36 48.11031 16.57492 608 ft 12 kts 207°
2026-04-25 17:36 48.10965 16.57402 615 ft 14 kts 263°
2026-04-25 17:36 48.10980 16.57330 616 ft 0 kts 296°
2026-04-25 17:37 48.10981 16.57327 616 ft 3 kts 296°
2026-04-25 17:37 48.11087 16.57004 616 ft 77 kts 296°
2026-04-25 17:38 48.11437 16.55931 616 ft 150 kts 296°
2026-04-25 17:38 48.11762 16.54949 963 ft 158 kts 295°
2026-04-25 17:38 48.11955 16.52868 2271 ft 159 kts 252°
2026-04-25 17:38 48.11332 16.51410 2897 ft 179 kts 227°
2026-04-25 17:39 48.10244 16.50271 3284 ft 202 kts 218°
2026-04-25 17:39 48.08987 16.49039 3554 ft 231 kts 218°
2026-04-25 17:39 48.07537 16.47710 3991 ft 260 kts 203°
2026-04-25 17:39 48.05677 16.47432 4679 ft 277 kts 178°
2026-04-25 17:40 48.03739 16.47739 5594 ft 283 kts 174°
2026-04-25 17:40 48.01767 16.48144 6472 ft 289 kts 173°
2026-04-25 17:40 47.99764 16.48597 7351 ft 293 kts 173°
2026-04-25 17:40 47.97735 16.48892 8281 ft 292 kts 186°
2026-04-25 17:41 47.95774 16.48255 9280 ft 287 kts 206°
2026-04-25 17:41 47.93984 16.46939 10158 ft 289 kts 213°
2026-04-25 17:41 47.92190 16.45435 10655 ft 307 kts 212°
2026-04-25 17:41 47.90163 16.44070 10929 ft 334 kts 201°
2026-04-25 17:42 47.87800 16.43355 11290 ft 358 kts 187°
2026-04-25 17:42 47.85268 16.43454 11977 ft 369 kts 175°
2026-04-25 17:42 47.82743 16.44303 12737 ft 376 kts 168°
2026-04-25 17:42 47.80194 16.45310 13511 ft 380 kts 168°
2026-04-25 17:43 47.77620 16.46319 14191 ft 385 kts 168°
2026-04-25 17:43 47.75010 16.47340 14838 ft 390 kts 168°
2026-04-25 17:43 47.72371 16.48371 15507 ft 394 kts 168°
2026-04-25 17:43 47.69708 16.49415 16148 ft 399 kts 168°
2026-04-25 17:44 47.67010 16.50477 16815 ft 403 kts 168°
2026-04-25 17:44 47.64284 16.51551 17467 ft 407 kts 168°
2026-04-25 17:44 47.61531 16.52633 18096 ft 412 kts 168°
2026-04-25 17:44 47.58749 16.53726 18703 ft 415 kts 168°
2026-04-25 17:45 47.55957 16.54820 19337 ft 416 kts 168°
2026-04-25 17:45 47.55010 16.55191 19554 ft 417 kts 168°
2026-04-25 17:45 47.50329 16.57016 20600 ft 420 kts 168°
2026-04-25 17:45 47.47496 16.58119 21188 ft 422 kts 168°
2026-04-25 17:46 47.44648 16.59225 21755 ft 424 kts 169°
2026-04-25 17:46 47.41742 16.59967 22303 ft 423 kts 179°
2026-04-25 17:46 47.38805 16.60145 22837 ft 424 kts 182°
2026-04-25 17:46 47.35852 16.60264 23344 ft 426 kts 182°
2026-04-25 17:47 47.32874 16.60389 23804 ft 429 kts 182°
2026-04-25 17:47 47.29882 16.60518 24216 ft 432 kts 182°
2026-04-25 17:47 47.26865 16.60651 24626 ft 435 kts 182°
2026-04-25 17:47 47.23833 16.60787 25029 ft 437 kts 182°
2026-04-25 17:48 47.17707 16.61058 25814 ft 442 kts 182°
2026-04-25 17:48 47.14623 16.61193 26194 ft 445 kts 182°
2026-04-25 17:48 47.11522 16.61329 26575 ft 447 kts 183°
2026-04-25 17:49 47.08406 16.61462 26937 ft 450 kts 183°
2026-04-25 17:49 47.05268 16.61597 27290 ft 452 kts 183°
2026-04-25 17:49 47.02120 16.61734 27630 ft 454 kts 183°
2026-04-25 17:49 46.98954 16.61876 27967 ft 456 kts 183°
2026-04-25 17:50 46.95771 16.62017 28293 ft 459 kts 183°
2026-04-25 17:50 46.92575 16.62149 28602 ft 461 kts 183°
2026-04-25 17:50 46.89364 16.62282 28895 ft 463 kts 183°
2026-04-25 17:50 46.86135 16.62417 29186 ft 464 kts 183°
2026-04-25 17:51 46.82910 16.62553 29592 ft 463 kts 183°
2026-04-25 17:51 46.79683 16.62899 30004 ft 467 kts 177°
2026-04-25 17:51 46.76469 16.63523 30354 ft 466 kts 177°
2026-04-25 17:51 46.73258 16.64140 30686 ft 466 kts 177°
2026-04-25 17:52 46.70046 16.64756 31029 ft 465 kts 177°
2026-04-25 17:52 46.68959 16.64964 31144 ft 465 kts 177°
2026-04-25 17:52 46.63632 16.65985 31696 ft 464 kts 178°
2026-04-25 17:52 46.60429 16.66594 32036 ft 464 kts 178°
2026-04-25 17:53 46.57235 16.67200 32376 ft 463 kts 178°
2026-04-25 17:53 46.54038 16.67808 32701 ft 463 kts 178°
2026-04-25 17:53 46.50847 16.68415 33054 ft 462 kts 178°
2026-04-25 17:53 46.47670 16.69018 33405 ft 461 kts 178°
2026-04-25 17:54 46.44486 16.69473 33737 ft 456 kts 184°
2026-04-25 17:54 46.41339 16.69246 34054 ft 449 kts 193°
2026-04-25 17:54 46.38323 16.68312 34346 ft 441 kts 202°
2026-04-25 17:54 46.35465 16.66733 34478 ft 438 kts 211°
2026-04-25 17:55 46.32703 16.64817 34595 ft 441 kts 211°
2026-04-25 17:55 46.29925 16.62900 34721 ft 443 kts 210°
2026-04-25 17:55 46.27141 16.60992 34909 ft 443 kts 210°
2026-04-25 17:56 46.21574 16.57195 34983 ft 443 kts 210°
2026-04-25 17:56 46.16006 16.53401 34981 ft 442 kts 210°
2026-04-25 17:57 46.11343 16.50225 34978 ft 442 kts 210°
2026-04-25 17:57 46.05779 16.46446 34980 ft 442 kts 210°
2026-04-25 17:58 46.00213 16.42669 34976 ft 442 kts 210°
2026-04-25 17:58 45.94652 16.38901 34975 ft 442 kts 210°
2026-04-25 17:59 45.89090 16.35133 34972 ft 442 kts 210°
2026-04-25 17:59 45.83520 16.31380 34966 ft 442 kts 210°
2026-04-25 18:00 45.77947 16.27647 34964 ft 442 kts 210°
2026-04-25 18:00 45.72374 16.23925 34956 ft 442 kts 210°
2026-04-25 18:01 45.66810 16.20199 34958 ft 442 kts 210°
2026-04-25 18:01 45.61240 16.16465 34958 ft 442 kts 210°
2026-04-25 18:02 45.55668 16.12746 34957 ft 442 kts 210°
2026-04-25 18:02 45.50086 16.09041 34958 ft 443 kts 209°
2026-04-25 18:03 45.44499 16.05349 34959 ft 443 kts 209°
2026-04-25 18:03 45.38913 16.01650 34960 ft 443 kts 209°
2026-04-25 18:04 45.33322 15.97952 34962 ft 443 kts 209°
2026-04-25 18:04 45.27731 15.94264 34969 ft 443 kts 209°
2026-04-25 18:05 45.22135 15.90584 34973 ft 443 kts 208°
2026-04-25 18:05 45.16454 15.87129 34968 ft 445 kts 206°
2026-04-25 18:06 45.10701 15.83875 34976 ft 445 kts 206°